Bridgeport, CT

11:35 PM EST on January 19, 2018 (GMT -0500)
Sikorsky Memorial

Weather History for KBDR - April, 2013

Change the Weather History Date:

Saturday, April 20, 2013

  Actual Average Record
Temperature  
Mean Temperature 52 °F 51 °F  
Max Temperature 61 °F 59 °F 84 °F (1952)
Min Temperature 43 °F 43 °F 32 °F (1956)
Degree Days  
Heating Degree Days 13 14  
Month to date heating degree days 315 347  
Since 1 July heating degree days 4733 5031  
Cooling Degree Days 0 0  
Month to date cooling degree days 0 0  
Year to date cooling degree days 0 0  
Growing Degree Days 4 (Base 50)    
Moisture  
Dew Point 41 °F    
Average Humidity 61    
Maximum Humidity 96    
Minimum Humidity 26    
Precipitation  
Precipitation 0.25 in 0.13 in 1.25 in (1972)
Month to date precipitation 1.08 2.82  
Year to date precipitation 10.64 12.76  
Snow  
Snow 0.00 in 0.00 in 0.00 in (2002)
Month to date snowfall 0.0 0.8  
Since 1 July snowfall 64.3 27.5  
Snow Depth 0.00 in    
Sea Level Pressure  
Sea Level Pressure 29.87 in    
Wind  
Wind Speed 12 mph (WNW)    
Max Wind Speed 21 mph    
Max Gust Speed 28 mph    
Visibility 9 miles    
Events Rain    
T = Trace of Precipitation, MM = Missing Value Source: NWS Daily Summary

Daily Weather History Graph

Daily Weather History Graph

Search for Another Location

Airport or City:

Trip Planner

Search our weather history database for the weather conditions in past years. The results will help you decide how hot, cold, wet, or windy it might be!

Date:

Astronomy

Apr. 20, 2013 Rise Set
Actual Time 6:05 AM EDT 7:38 PM EDT
Civil Twilight 5:36 AM EDT 8:07 PM EDT
Nautical Twilight 5:01 AM EDT 8:42 PM EDT
Astronomical Twilight 4:24 AM EDT 9:19 PM EDT
Moon 2:16 PM EDT 2:56 AM EDT
Length of Visible Light 14h 30m
Length of Day
13h 32m
Waxing Gibbous, 71% of the Moon is Illuminated
Apr 20
Waxing Gibbous
Apr 25
Full
May 2
Last Quarter
May 9
New
May 18
First Quarter

Hourly Weather History & Observations

Time (EDT) Temp. Windchill Dew Point Humidity Pressure Visibility Wind Dir Wind Speed Gust Speed Precip Events Conditions
12:22 AM 55.4 °F - 55.4 °F 100% 29.66 in 8.0 mi South 16.1 mph 25.3 mph 0.00 in   Overcast
12:45 AM 57.2 °F - 55.4 °F 94% 29.68 in 9.0 mi South 18.4 mph 25.3 mph 0.00 in   Overcast
12:52 AM 57.0 °F - 55.0 °F 93% 29.67 in 8.0 mi South 16.1 mph - 0.00 in Rain Light Rain
1:17 AM 57.2 °F - 55.4 °F 94% 29.67 in 7.0 mi SSW 18.4 mph 25.3 mph 0.00 in Rain Light Rain
1:33 AM 57.2 °F - 55.4 °F 94% 29.68 in 4.0 mi WSW 15.0 mph 24.2 mph 0.01 in Rain Light Rain
1:40 AM 57.2 °F - 55.4 °F 94% 29.68 in 4.0 mi WSW 12.7 mph 21.9 mph 0.02 in Rain Rain
1:52 AM 57.9 °F - 55.9 °F 93% 29.69 in 8.0 mi West 9.2 mph - 0.03 in Rain Light Rain
2:43 AM 55.4 °F - 53.6 °F 94% 29.67 in 10.0 mi WNW 6.9 mph - 0.04 in Rain Light Rain
2:52 AM 55.9 °F - 52.0 °F 87% 29.66 in 10.0 mi WNW 5.8 mph - 0.04 in Rain Light Rain
3:52 AM 52.0 °F - 48.9 °F 89% 29.70 in 5.0 mi SW 8.1 mph - 0.06 in Rain Rain
4:52 AM 52.0 °F - 50.0 °F 93% 29.73 in 10.0 mi WSW 8.1 mph - 0.04 in Rain Light Rain
5:37 AM 51.8 °F - 50.0 °F 94% 29.77 in 5.0 mi West 8.1 mph - 0.02 in Rain Rain
5:52 AM 51.1 °F - 48.9 °F 92% 29.78 in 7.0 mi NNW 8.1 mph - 0.03 in Rain Light Rain
5:59 AM 50.0 °F - 48.2 °F 94% 29.79 in 7.0 mi NNW 6.9 mph - 0.01 in Rain Light Rain
6:52 AM 48.0 °F - 46.0 °F 93% 29.84 in 10.0 mi NW 9.2 mph - 0.05 in Rain Light Rain
7:23 AM 46.4 °F 40.7 °F 42.8 °F 87% 29.85 in 10.0 mi NNW 12.7 mph - 0.00 in   Overcast
7:38 AM 46.4 °F 41.9 °F 42.8 °F 87% 29.86 in 10.0 mi NNW 9.2 mph 17.3 mph 0.00 in   Overcast
7:52 AM 46.0 °F 42.5 °F 43.0 °F 89% 29.86 in 10.0 mi NW 6.9 mph - 0.00 in   Overcast
8:52 AM 48.0 °F - 43.0 °F 83% 29.87 in 10.0 mi NW 6.9 mph - N/A   Mostly Cloudy
9:52 AM 53.1 °F - 42.1 °F 66% 29.90 in 10.0 mi West 11.5 mph 17.3 mph N/A   Clear
10:52 AM 54.0 °F - 39.0 °F 57% 29.93 in 10.0 mi WSW 11.5 mph 19.6 mph N/A   Scattered Clouds
11:52 AM 55.9 °F - 39.9 °F 55% 29.94 in 10.0 mi West 13.8 mph 21.9 mph N/A   Partly Cloudy
12:52 PM 55.0 °F - 27.0 °F 34% 29.93 in 10.0 mi NW 16.1 mph - N/A   Clear
1:52 PM 55.0 °F - 30.0 °F 38% 29.94 in 10.0 mi West 12.7 mph 20.7 mph N/A   Clear
2:52 PM 57.0 °F - 28.9 °F 34% 29.94 in 10.0 mi West 15.0 mph 23.0 mph N/A   Clear
3:52 PM 59.0 °F - 28.9 °F 32% 29.96 in 10.0 mi West 13.8 mph 21.9 mph N/A   Clear
4:52 PM 59.0 °F - 27.0 °F 29% 29.98 in 10.0 mi West 16.1 mph 24.2 mph N/A   Clear
5:52 PM 57.9 °F - 26.1 °F 30% 30.01 in 10.0 mi NW 16.1 mph 19.6 mph N/A   Clear
6:52 PM 59.0 °F - 25.0 °F 27% 30.04 in 10.0 mi West 11.5 mph 19.6 mph N/A   Clear
7:52 PM 55.9 °F - 24.1 °F 29% 30.08 in 10.0 mi NW 11.5 mph 17.3 mph N/A   Clear
8:52 PM 54.0 °F - 24.1 °F 31% 30.13 in 10.0 mi NNW 9.2 mph 18.4 mph N/A   Clear
9:52 PM 52.0 °F - 23.0 °F 32% 30.19 in 10.0 mi NW 9.2 mph - N/A   Clear
10:52 PM 50.0 °F - 24.1 °F 36% 30.21 in 10.0 mi NW 13.8 mph 24.2 mph N/A   Clear
11:52 PM 46.9 °F - 27.0 °F 46% 30.26 in 10.0 mi North 19.6 mph 25.3 mph N/A   Clear